Location: Moscow
(55.7500°N, 37.5830°E)
Time: 16:08:35
(UTC+03:00)

ISS - Visible Passes

Search period start: 08 March 2021 00:00
Search period end: 18 March 2021 00:00
Orbit: 417 x 422 km, 51.6° (Epoch: 07 March)

Date Brightness Start Highest point End Pass type
(mag) Time Alt. Az. Time Alt. Az. Time Alt. Az.
08 Mar -2.2 04:40:14 27° SSE 04:40:14 27° SSE 04:42:15 10° SE visible
08 Mar -1.7 06:13:16 10° WSW 06:15:19 15° SSW 06:17:23 10° S visible
09 Mar -0.8 03:54:44 11° ESE 03:54:44 11° ESE 03:54:55 10° ESE visible
09 Mar -2.2 05:27:42 19° SW 05:28:02 20° SSW 05:30:33 10° SSE visible
10 Mar -1.7 04:42:18 17° SSE 04:42:18 17° SSE 04:43:30 10° SE visible
11 Mar -1.4 05:30:00 11° SSW 05:30:00 11° SSW 05:30:32 10° SSW visible
